Theta_e
312 314 315 315 317 316 313 308 297 305 307 294 294 289 293 293 293 294 293 293 292 291 290 289 290 290 292 296 293 289 293 291 288 289 287 286 290 289 289 284 283 284 285 286
309 310 313 314 315 316 310 302 300 304 305 289 289 293 293 293 294 293 293 292 294 293 290 286 291 292 295 295 294 291 291 288 285 287 284 284 285 287 288 290 288 284 282 285
305 307 308 310 313 314 312 303 292 295 297 299 294 292 292 291 295 294 292 291 292 290 290 291 290 290 292 294 295 296 295 289 288 284 287 286 284 286 286 287 284 285 285 288
302 303 305 306 308 310 308 303 294 293 285 288 293 294 294 292 290 294 294 291 291 291 287 289 289 292 293 290 292 292 292 286 289 290 292 291 289 288 287 284 286 284 287 288
300 301 301 304 305 306 302 299 293 294 293 293 291 291 291 291 294 295 292 290 294 291 288 290 291 292 290 290 290 290 289 286 288 285 289 288 286 288 289 289 288 288 287 286
299 300 300 301 303 303 298 303 304 296 291 290 288 288 289 291 294 296 297 295 292 291 293 295 296 297 296 293 291 289 287 286 284 281 287 286 282 285 287 288 290 290 285 290
298 299 300 300 301 300 297 296 293 287 286 292 289 292 291 291 292 292 296 296 293 297 301 296 293 290 292 293 292 294 288 286 286 281 284 275 287 293 291 289 290 292 291 293
298 299 299 299 299 299 296 297 291 287 283 288 288 291 292 293 295 294 294 297 300 300 294 289 285 284 285 287 290 292 292 288 283 280 280 284 285 289 287 286 286 292 291 292
298 298 298 298 298 298 295 295 296 289 283 283 289 288 288 286 288 290 293 298 301 297 291 286 282 281 284 283 285 290 290 291 284 282 277 276 287 291 293 290 281 293 292 291
298 298 298 298 298 297 295 294 296 290 283 287 287 284 284 289 288 287 289 289 289 295 289 285 283 282 288 283 283 285 283 284 281 281 280 283 291 290 290 279 284 294 294 293
297 297 297 297 297 297 295 293 296 289 285 286 288 288 284 285 285 282 284 284 287 287 285 285 285 284 287 286 288 287 285 282 281 282 279 277 294 293 285 292 296 295 295 294
296 297 297 297 297 297 297 289 294 295 286 284 288 289 289 287 286 285 285 284 281 285 283 285 285 285 287 286 282 291 284 289 286 287 286 294 296 294 296 297 296 297 296 296
296 296 296 297 297 297 296 291 291 289 285 284 282 283 287 289 289 290 280 283 284 285 288 283 283 278 283 277 281 285 289 294 288 289 292 293 294 297 297 298 295 296 297 296
295 295 296 296 296 296 296 291 290 289 285 277 279 283 283 288 289 288 289 287 287 286 284 279 280 279 285 282 283 283 286 286 285 284 287 291 295 296 297 296 295 293 294 293
295 295 295 295 296 296 295 293 292 291 284 277 277 281 285 286 286 285 286 284 282 281 277 277 275 280 280 282 281 279 285 285 283 283 291 290 292 295 295 294 295 296 294 294
295 295 295 295 295 295 291 285 290 292 290 282 275 284 281 285 285 283 283 283 282 280 279 278 280 282 279 275 274 281 284 286 288 285 289 288 288 289 291 291 293 295 295 294
295 295 294 295 294 292 286 283 287 291 291 282 276 275 279 280 281 282 282 283 282 281 279 278 278 278 279 275 271 279 281 283 284 286 285 282 284 284 288 289 289 289 289 291
294 294 293 294 294 293 287 291 294 292 286 283 275 275 275 278 278 277 281 279 280 279 279 279 276 278 278 272 277 280 282 283 283 281 278 281 285 285 286 287 287 286 286 288
293 293 293 290 288 285 285 292 293 292 285 276 274 270 269 275 276 277 278 278 273 278 274 275 276 274 271 275 275 272 269 269 269 269 271 274 276 275 278 280 283 283 285 288
292 289 284 278 282 289 290 283 279 280 281 280 273 272 270 275 274 272 272 272 271 268 273 277 273 272 277 265 266 266 266 266 266 263 264 265 265 268 270 272 276 279 283 286
286 281 279 283 290 284 281 275 273 269 269 273 274 271 272 277 271 269 275 272 271 266 271 270 269 269 268 264 263 264 265 264 264 264 263 263 264 264 266 268 270 273 276 279
285 284 285 285 281 277 272 270 266 265 266 268 271 272 273 274 279 274 273 270 270 265 271 268 266 272 262 260 259 261 262 261 260 261 261 261 262 264 264 264 266 268 272 277
286 282 278 276 273 268 267 263 263 261 265 267 270 271 275 276 276 273 270 265 265 268 265 265 269 261 260 258 258 258 259 259 259 258 259 259 260 261 264 266 269 270 275 281
277 273 269 270 267 269 266 265 267 269 268 267 269 270 273 271 271 272 265 268 266 263 262 265 259 257 256 256 256 255 255 256 257 257 257 258 258 260 265 268 270 272 271 270
272 271 265 265 268 263 261 260 262 261 263 266 268 268 270 269 268 269 266 262 261 264 264 259 255 254 253 253 254 254 254 256 256 256 256 257 258 260 264 264 266 268 266 264
274 272 267 259 262 261 259 258 259 262 263 265 267 268 266 266 265 262 263 261 261 263 251 253 253 252 252 253 254 254 256 256 256 256 257 257 258 259 261 261 262 263 263 262
269 267 260 259 255 254 253 254 257 260 260 265 263 265 265 267 264 261 253 256 249 250 250 252 252 251 252 253 254 256 256 256 256 256 257 257 258 260 259 258 259 260 261 260
Wind_Speed
14 14 13 14 15 13 9 4 6 10 15 8 5 13 11 4 6 6 9 4 12 23 15 14 14 16 16 14 12 14 9 3 11 21 3 2 9 15 18 11 11 10 13 31
17 17 16 13 13 7 1 4 2 3 8 11 11 12 13 8 12 12 9 15 12 10 14 12 16 18 8 12 14 13 11 6 7 13 6 2 9 10 10 17 14 30 13 29
18 17 18 16 14 9 6 3 5 3 3 5 19 20 20 17 8 13 6 4 3 1 10 12 14 14 4 5 8 3 10 7 13 21 22 2 6 14 20 24 19 21 26 28
16 18 17 16 15 13 3 5 5 8 8 11 16 16 7 21 15 13 9 6 21 22 21 23 19 27 19 4 3 2 6 14 14 20 24 23 24 18 20 26 28 29 28 25
18 17 18 16 13 18 5 5 4 5 4 17 25 22 18 28 25 21 14 19 22 21 26 23 23 23 21 17 4 6 4 19 18 27 29 32 34 21 34 32 34 26 23 29
18 17 20 13 11 8 4 4 4 4 11 12 14 22 28 27 26 22 27 28 19 21 25 32 33 26 18 8 15 17 10 8 12 23 25 23 14 35 35 41 38 33 31 34
18 18 16 15 10 4 2 3 3 4 6 13 18 24 30 35 37 34 26 25 25 33 21 5 4 2 18 18 21 20 15 21 14 12 9 20 22 25 37 37 34 33 28 37
19 18 18 17 15 14 5 3 3 4 6 6 13 13 21 23 29 32 33 32 27 10 6 9 12 6 8 17 26 28 25 21 11 10 17 17 3 18 25 23 33 27 33 34
19 19 19 15 14 18 7 5 5 4 5 7 7 6 5 8 15 18 25 25 20 8 6 6 13 14 7 8 6 26 25 25 19 13 15 21 19 30 22 6 8 31 28 28
22 21 20 17 19 17 8 5 7 5 5 8 10 12 10 6 6 7 3 7 6 16 13 16 15 17 5 14 18 17 10 14 25 23 23 14 11 9 5 13 21 32 31 27
21 21 22 19 19 18 12 5 7 5 4 10 7 8 9 7 4 4 6 8 2 3 12 12 14 11 15 16 25 28 24 13 13 14 19 27 18 24 26 29 29 25 22 14
23 21 22 22 19 19 17 4 6 7 5 6 4 11 13 15 16 8 3 6 8 5 5 4 6 6 6 15 14 19 23 28 27 22 15 11 15 30 30 32 27 24 18 18
24 23 21 23 21 20 16 5 6 3 5 6 5 10 12 11 16 13 9 8 8 6 3 4 6 5 7 7 7 8 10 21 20 26 28 22 16 17 22 24 26 27 24 23
24 25 22 22 20 21 17 7 4 3 3 4 5 2 6 4 8 7 11 15 9 8 4 5 6 7 5 11 10 9 11 11 9 13 21 22 21 19 16 16 17 15 17 13
24 24 24 23 21 19 14 5 7 7 5 3 4 2 9 13 15 19 16 14 13 7 7 8 13 10 11 13 17 18 20 19 15 17 19 17 16 13 17 22 26 22 16 19
25 24 23 23 21 18 3 4 7 11 9 5 4 2 4 8 11 10 10 8 7 4 4 5 5 10 11 11 14 17 20 21 21 24 27 26 23 22 23 22 21 20 16 16
23 21 20 21 20 8 5 2 1 6 5 3 3 3 5 4 3 3 3 6 5 5 6 8 12 13 15 16 20 24 24 26 26 27 28 29 28 27 24 24 28 28 28 26
19 17 16 16 17 14 8 8 13 6 4 5 4 3 3 4 3 5 3 5 3 5 6 10 15 13 11 12 18 22 26 26 24 16 18 19 19 20 21 22 23 27 28 25
13 12 13 2 2 3 4 12 13 5 3 3 2 3 6 1 4 2 2 3 7 4 8 12 8 8 9 15 14 15 14 13 18 22 20 17 14 17 20 21 23 22 23 23
11 3 2 3 5 4 11 3 2 3 2 3 4 2 6 4 1 2 1 1 4 3 6 4 5 10 21 14 11 11 15 16 18 19 19 22 26 20 23 24 23 25 24 23
3 3 4 1 8 2 2 4 4 2 2 4 5 8 8 3 4 4 4 3 3 4 4 3 4 7 5 12 14 14 15 15 17 18 21 21 23 25 23 27 27 25 25 24
6 4 4 2 3 3 5 3 2 4 7 3 4 4 5 2 3 3 3 4 2 7 1 4 11 9 7 14 18 18 18 18 19 18 23 25 25 22 23 25 28 26 24 26
3 4 6 4 2 5 6 6 3 3 4 3 2 3 3 3 3 4 3 5 7 2 3 9 10 12 12 15 15 18 17 20 21 21 20 23 26 22 21 27 23 25 25 16
1 1 3 4 3 4 6 7 4 1 1 0 1 2 4 2 4 4 4 6 1 4 9 21 3 14 16 15 16 17 21 20 22 23 22 22 22 23 23 17 14 12 5 5
3 4 5 6 2 1 1 1 3 2 2 2 1 3 2 3 3 4 0 3 6 7 9 2 9 16 16 18 18 18 20 19 20 21 20 21 20 20 16 14 13 10 8 10
1 4 2 0 1 1 1 2 2 3 3 2 2 3 3 6 4 4 8 4 9 4 4 9 13 15 15 17 17 18 18 19 19 18 19 18 17 15 12 10 11 10 9 10
4 3 3 2 4 3 1 2 3 5 3 2 1 5 6 3 5 5 5 3 4 8 10 9 13 16 20 19 18 18 18 18 17 17 16 15 14 9 9 11 11 11 12 13
Wind_Direction
349 330 333 342 281 238 188 227 221 159 147 181 204 225 233 206 245 242 260 237 252 243 225 236 235 242 225 177 159 169 207 207 233 238 135 316 256 231 214 222 223 237 262 272
347 350 337 317 335 284 159 224 151 212 184 186 209 224 239 268 230 229 212 231 219 212 234 236 234 243 189 175 173 171 169 206 240 254 207 177 213 207 233 243 260 247 233 253
333 343 345 343 335 340 237 237 197 166 231 268 219 218 225 229 207 243 232 286 36 206 241 233 253 248 200 198 208 351 176 171 215 238 252 95 187 228 221 223 234 252 241 262
306 319 328 342 333 342 287 207 216 169 180 235 236 226 227 238 240 226 205 220 223 233 248 247 252 260 249 190 175 219 184 233 236 250 262 275 278 269 250 233 243 243 258 257
317 310 303 315 331 339 254 263 162 172 207 220 217 222 220 229 239 229 229 225 230 231 241 243 259 244 248 236 193 213 204 243 247 252 262 263 257 260 261 266 257 251 253 262
298 305 309 298 313 357 292 325 267 246 176 192 207 222 225 230 236 240 236 233 234 232 226 226 241 252 258 191 231 227 210 222 217 239 231 251 254 240 249 257 262 256 254 255
288 292 290 304 308 297 283 320 327 278 290 235 224 223 214 223 229 228 233 232 232 237 247 294 324 298 246 239 227 226 240 225 229 248 229 229 233 243 237 244 251 257 253 252
291 289 295 289 274 274 286 280 271 282 272 280 296 290 255 250 238 241 243 240 238 258 191 239 249 228 228 226 227 225 218 230 235 231 219 242 170 234 225 225 246 257 249 251
284 284 287 281 278 281 274 248 238 252 288 242 280 283 297 288 255 260 246 254 254 216 224 202 232 233 199 199 217 220 224 228 230 223 230 233 231 236 239 78 247 248 239 249
281 277 275 275 267 270 259 255 258 241 263 260 260 272 282 318 321 307 325 309 231 210 224 236 242 245 209 230 224 222 197 214 227 236 245 246 219 207 111 192 240 245 249 247
280 275 273 271 265 260 264 256 217 221 275 277 247 259 271 299 286 285 4 342 358 224 226 230 226 238 227 232 232 225 220 203 211 230 242 248 217 226 220 236 240 241 257 249
274 274 269 266 261 263 254 248 233 221 228 273 256 261 259 263 261 273 207 306 322 295 304 350 320 295 215 198 226 217 230 226 235 220 230 238 210 222 225 241 251 252 251 252
270 266 263 264 266 263 252 239 235 182 224 247 263 253 264 253 253 238 243 252 246 254 340 342 315 316 333 307 330 317 281 267 265 261 252 263 253 236 240 240 240 248 253 258
273 265 267 265 262 260 262 241 177 225 203 235 261 310 250 233 219 214 229 260 287 305 325 281 264 276 239 274 278 257 275 297 284 291 288 281 284 280 283 288 288 280 275 267
271 269 258 261 259 255 258 252 212 196 238 219 238 252 252 246 252 264 257 242 245 242 265 257 266 276 277 265 265 259 269 282 277 276 296 282 284 307 307 299 293 285 276 274
260 268 262 257 256 252 252 236 205 203 195 258 233 260 260 244 222 234 245 242 257 218 230 260 250 260 271 261 261 270 277 282 287 290 292 295 305 296 289 285 289 290 286 272
260 259 259 256 254 240 213 252 122 166 164 255 262 240 241 264 233 231 210 192 216 223 255 247 268 267 264 263 267 280 274 275 273 274 280 284 286 288 286 284 286 283 278 272
254 255 255 260 256 257 239 229 228 166 192 205 231 216 302 170 203 245 217 244 233 215 253 267 261 269 262 260 260 257 264 269 276 316 327 309 306 301 294 290 287 283 280 277
238 237 244 301 195 211 222 196 224 192 222 254 189 222 264 146 208 240 243 233 270 258 248 248 250 245 237 254 327 357 358 346 322 318 308 309 331 320 309 308 298 292 292 291
213 155 160 220 214 170 109 48 139 194 202 237 205 160 239 179 263 260 268 176 237 239 236 266 224 242 252 45 19 349 339 336 335 333 324 333 314 306 302 298 289 284 283 286
131 163 206 268 156 90 162 201 190 148 238 224 228 198 231 197 201 215 214 251 251 248 252 253 261 274 66 4 349 338 331 327 320 307 297 295 288 292 295 290 284 281 283 282
183 140 106 170 195 189 195 170 122 204 221 221 203 201 195 207 170 200 213 227 242 241 165 232 269 271 16 347 334 327 327 320 310 308 301 298 293 293 286 281 280 280 279 273
145 177 179 188 159 187 199 177 235 254 207 221 228 225 188 165 194 212 218 210 234 4 239 257 277 27 354 340 326 320 320 318 312 307 304 300 298 298 287 284 273 272 271 284
140 133 180 204 181 226 187 193 190 145 130 298 251 247 211 196 180 218 203 234 326 243 252 267 30 338 329 325 321 316 317 315 312 313 313 308 305 305 302 301 313 306 339 20
182 149 216 206 229 24 45 73 116 19 293 314 249 253 236 216 227 218 161 288 236 226 261 325 330 326 322 317 317 313 313 314 315 314 310 312 312 307 317 336 343 6 30 60
201 207 219 163 95 254 72 27 94 9 325 263 236 240 212 228 214 167 221 208 235 303 350 315 312 312 310 308 307 307 307 314 312 310 313 315 317 318 328 351 7 27 49 71
195 206 41 69 66 76 76 351 5 330 308 225 232 223 221 316 232 244 17 290 332 314 307 301 303 304 308 307 305 312 313 313 313 313 318 324 319 335 14 25 18 43 56 62